Helicity
27 23 27 45 34 33 40 50 70 69 53 46 47 31 20 45 66 70 90 68 54 51 57 51 31 40 42 36 55 56 96 103 77
33 28 34 47 53 43 39 58 64 76 67 54 46 24 42 72 62 61 57 56 46 42 39 4 5 16 47 56 94 101 80 64 56
29 37 37 47 68 61 47 51 53 61 59 62 52 35 64 6 24 55 41 53 24 37 25 29 48 74 81 97 92 93 70 72 85
28 41 53 64 85 70 42 33 33 38 42 56 56 49 41 75 52 51 74 34 20 36 28 20 37 87 96 98 87 64 65 82 67
35 42 51 85 87 85 63 28 27 20 33 40 51 36 25 30 71 79 91 7 20 3 7 87 73 57 83 61 66 61 85 109 101
71 79 112 131 135 111 58 35 27 19 45 26 30 25 17 42 59 68 61 5 14 11 36 60 75 57 51 96 79 96 103 95 82
121 158 196 203 207 156 110 53 22 28 34 25 16 6 14 43 56 80 73 23 16 9 -0 25 55 47 56 96 120 107 81 83 80
158 184 217 262 208 147 66 70 32 4 39 44 7 -0 106 54 70 89 79 60 27 36 12 27 58 53 61 89 94 84 72 83 90
150 167 163 191 181 181 142 56 6 -3 32 67 -2 103 93 89 87 77 14 20 39 35 37 40 54 38 55 79 72 69 60 85 72
120 135 150 164 150 159 76 31 34 30 40 46 55 58 79 113 167 83 -21 -50 13 29 33 43 67 38 32 35 66 56 72 65 70
126 139 143 151 138 88 46 61 84 76 54 51 94 56 94 129 126 122 35 -4 -9 36 28 26 56 34 2 34 62 58 68 63 56
93 162 173 157 142 103 88 115 153 112 86 94 87 77 111 116 137 155 82 19 -6 10 28 27 29 27 22 40 27 45 59 58 53
95 92 189 160 171 166 147 150 154 130 136 124 134 143 133 81 112 112 88 65 16 40 45 41 23 33 38 22 24 37 60 47 56
107 124 123 166 189 192 209 211 196 168 150 146 152 153 155 132 156 123 86 98 64 61 81 94 62 53 27 21 23 31 37 64 34
97 101 113 140 198 205 214 231 242 205 165 147 160 211 196 196 176 127 114 107 89 78 94 106 128 112 80 56 19 31 30 44 14
94 91 91 165 128 190 210 201 209 188 144 151 196 171 161 184 172 153 155 130 128 103 95 128 112 114 111 96 49 30 49 29 20
119 102 95 132 168 152 153 183 238 229 192 268 198 247 213 201 191 175 188 141 161 132 109 122 133 137 138 110 102 92 47 40 30
268 158 156 133 234 129 180 222 269 282 222 208 209 240 234 203 180 169 177 161 175 150 132 108 104 133 142 129 119 103 103 44 38
408 360 313 341 330 342 325 341 260 289 242 268 271 276 262 260 221 150 147 139 146 124 120 111 110 121 150 130 128 110 88 69 71
531 518 433 539 537 620 409 568 536 497 262 230 242 226 250 266 280 250 179 133 157 157 151 138 135 116 135 150 142 129 105 73 70
Wind_Speed
27 26 23 12 9 9 9 10 12 13 13 13 14 13 10 14 12 13 14 13 14 14 15 14 13 12 11 12 13 14 19 18 18
29 25 21 13 5 6 7 9 11 11 10 10 9 9 10 14 15 13 13 13 15 15 15 13 13 12 10 10 14 16 17 18 18
29 25 21 16 10 9 10 10 10 10 10 10 9 8 19 10 11 12 14 13 13 13 13 11 11 10 10 10 11 13 13 14 16
36 26 20 18 18 15 14 11 12 13 13 13 13 16 23 29 19 22 19 13 12 10 13 10 7 8 9 10 11 11 12 10 13
36 33 21 20 21 20 19 18 17 18 18 17 17 19 31 36 18 24 11 10 9 10 8 11 11 10 10 10 9 9 11 13 11
38 27 23 22 25 26 25 26 23 22 18 20 17 17 22 28 17 14 6 6 7 8 7 6 6 9 8 11 10 8 7 8 11
29 30 22 24 26 35 35 34 32 22 21 23 22 21 25 21 20 17 8 9 4 6 5 5 5 6 8 11 9 6 7 10 14
22 28 31 28 26 30 37 42 38 33 22 23 25 29 23 26 19 13 15 22 11 7 7 1 3 4 8 7 8 9 11 14 15
29 27 31 33 27 29 28 38 31 41 32 22 23 26 23 22 18 15 15 17 26 9 8 2 1 3 3 6 13 13 13 17 17
32 32 34 34 35 33 33 32 42 39 34 32 30 25 25 24 22 17 16 16 18 24 11 4 5 5 5 8 11 14 16 16 20
41 37 35 39 38 36 33 29 29 34 43 36 31 31 30 28 30 26 24 25 22 21 26 15 10 9 11 9 13 17 17 19 21
52 46 41 39 39 38 36 34 40 38 36 40 37 37 32 33 31 32 28 29 29 31 31 26 22 17 16 15 12 15 21 25 25
58 55 49 44 42 42 39 36 36 43 41 43 42 39 36 34 30 31 33 29 29 34 38 36 32 29 22 18 16 16 15 24 28
61 63 64 53 48 45 45 42 37 40 46 45 42 43 40 38 35 33 36 36 33 34 33 40 40 38 37 31 24 22 23 19 24
67 67 65 58 49 52 50 45 44 42 42 50 44 44 46 44 43 42 41 40 37 34 34 37 43 45 43 42 40 32 30 29 24
68 70 69 62 63 52 50 50 46 48 45 42 48 48 48 51 49 49 45 44 43 41 38 39 42 43 45 47 46 44 36 33 33
66 71 77 74 70 66 56 56 52 48 44 45 47 55 61 62 56 52 51 49 47 49 48 46 46 46 48 50 50 49 46 41 35
59 61 66 72 67 67 65 44 52 55 50 51 51 54 59 51 61 57 54 54 52 51 52 52 50 47 47 47 48 49 52 53 48
51 52 57 58 63 58 64 62 52 53 61 55 55 51 49 56 54 53 59 54 55 53 52 53 53 53 52 49 50 52 53 53 54
46 46 47 48 46 47 48 52 52 54 54 54 54 59 58 54 59 61 54 54 64 58 55 56 56 55 54 53 54 53 55 56 57
Wind_Direction
284 282 280 301 334 357 20 20 24 29 28 35 47 57 32 321 356 15 349 351 354 335 339 344 358 9 3 19 28 38 45 33 34
283 281 277 279 311 347 5 1 14 5 357 6 25 43 337 341 309 351 357 352 351 351 338 1 9 23 24 24 34 36 35 32 41
280 279 273 261 268 292 306 324 340 350 333 334 329 330 294 16 18 353 2 348 355 347 338 355 13 23 29 14 15 14 21 29 29
278 277 270 251 259 274 288 306 319 320 311 305 301 292 286 283 306 301 320 332 342 357 335 344 22 354 348 340 339 6 20 14 34
278 273 265 248 256 267 276 285 296 302 300 294 290 289 276 272 311 296 338 348 11 359 25 55 49 20 342 335 355 23 33 23 24
274 270 260 254 259 266 269 278 285 291 296 292 290 288 285 286 302 310 28 19 29 27 38 34 32 351 350 321 321 5 13 10 0
273 265 259 261 259 260 268 270 273 283 289 287 286 285 283 289 291 295 321 317 21 42 16 8 51 28 4 323 318 328 328 328 317
274 264 262 260 259 262 263 262 267 271 282 287 282 280 286 285 291 296 293 283 300 318 329 61 74 32 337 322 321 314 311 312 307
267 262 260 258 256 263 266 257 263 264 274 285 279 284 282 286 286 294 295 295 281 295 308 172 226 318 348 319 299 298 306 300 294
263 261 260 257 256 255 261 262 264 266 272 275 278 278 278 276 286 289 289 292 294 282 288 218 257 268 290 306 290 295 297 292 290
266 263 258 256 254 256 261 259 263 267 264 272 274 273 275 275 276 282 282 284 286 283 283 270 261 264 276 290 279 283 284 287 284
268 264 259 253 256 259 259 261 266 267 263 269 272 271 273 273 273 275 282 282 282 275 276 274 268 269 275 279 274 273 278 280 280
265 266 264 256 255 258 259 259 259 262 264 266 269 270 272 272 270 273 276 279 284 278 271 272 273 271 271 271 272 263 271 279 278
267 264 263 262 258 254 255 257 256 258 263 268 267 265 267 269 270 271 273 277 280 285 272 271 271 271 273 273 268 267 271 269 273
268 267 263 262 256 254 254 252 256 257 261 263 268 265 266 268 269 270 274 276 277 277 276 274 273 271 271 273 273 267 269 272 270
271 268 267 260 259 257 252 253 251 255 259 264 268 267 268 266 267 270 272 275 275 275 273 272 275 272 269 271 273 271 265 269 271
274 271 266 270 264 260 259 250 254 259 260 263 264 267 267 266 267 269 271 272 273 272 272 272 273 272 271 270 270 271 270 270 267
282 278 275 268 269 262 257 247 250 255 260 263 267 268 269 269 267 267 270 270 273 273 272 272 272 273 273 271 268 268 269 272 270
290 283 276 277 270 271 268 260 255 256 260 264 263 272 277 272 275 269 268 271 271 272 273 273 273 273 274 273 270 269 269 270 272
302 293 285 284 281 281 271 272 264 264 263 263 265 264 269 275 276 274 276 274 270 273 272 273 274 273 274 275 275 272 269 268 270